Location: Betpouey
(42.8833°N, 0.0333°E)
Time: 08:28:59
(UTC+00:00)

X-37B - Pass Details

Date: 01 December 2020
Orbit: 384 x 390 km, 45.0° (Epoch: 02 January)

Event Time Altitude Azimuth Distance (km) Brightness Sun altitude
Rises 17:21:35 0° 251° (WSW) 2,257 6.8 -9.9°
Reaches altitude 10° 17:23:39 10° 251° (WSW) 1,406 5.1 -10.3°
Maximum altitude 17:26:49 86° 165° (SSE) 391 0.5 -10.8°
Enters shadow 17:29:00 19° 74° (ENE) 1,014 2.0 -11.2°
